FW1409 Weather Reports


Display with metric or nautical units.
time (UTC)temp
F
wind
direction
speed
MPH
gust
MPH
rain 1hr
in
rain 24hr
in
rain mn
in
humidity
%
barometer
mb
20260504120110 53 288 2.0 6.0 0.00 0.00 0.00 62 1014.3
20260504081532 42 238 0.0 0.0 0.00 0.00 0.00 79 1013.3
20260504050003 42 238 0.0 0.0 0.00 0.00 0.00 77 1012.9
20260504044501 42 238 0.0 0.0 0.00 0.00 0.00 76 1012.9
20260504043110 43 238 0.0 0.0 0.00 0.00 0.00 74 1012.7
20260504041557 43 238 0.0 0.0 0.00 0.00 0.00 74 1012.7
20260504040053 44 238 0.0 0.0 0.00 0.00 0.00 73 1012.5
20260504034552 44 238 0.0 0.0 0.00 0.00 0.00 71 1012.7
20260504033101 45 238 0.0 1.0 0.00 0.00 0.00 72 1012.5
20260504031600 45 238 0.0 0.0 0.00 0.00 0.00 71 1012.3
20260504030051 46 238 0.0 0.0 0.00 0.00 0.00 70 1012.5
20260504024559 47 238 0.0 1.0 0.00 0.00 0.00 67 1012.6
20260504023050 47 238 0.0 1.0 0.00 0.00 0.00 66 1012.7
20260504021553 47 238 0.0 4.0 0.00 0.00 0.00 63 1012.8
20260504020051 47 245 0.0 0.0 0.00 0.00 0.00 62 1012.5
20260504014547 48 245 0.0 0.0 0.00 0.00 0.00 58 1012.5
20260504013054 49 245 0.0 0.0 0.00 0.00 0.00 55 1012.3
20260504011545 49 245 0.0 0.0 0.00 0.00 0.00 50 1012.3
20260504010045 50 245 0.0 0.0 0.00 0.00 0.00 50 1012.2
20260504004558 50 245 0.0 0.0 0.00 0.00 0.00 47 1011.8
20260504003043 51 245 0.0 0.0 0.00 0.00 0.00 44 1011.7
20260504001546 53 245 0.0 0.0 0.00 0.00 0.00 42 1011.5
20260504000043 53 245 0.0 2.0 0.00 0.00 0.00 41 1011.3
20260503234541 54 267 0.0 2.0 0.00 0.00 0.00 40 1011.0
20260503233041 54 148 0.0 2.0 0.00 0.00 0.00 38 1010.7
20260503231549 55 249 0.0 7.0 0.00 0.00 0.00 37 1010.6
20260503230040 56 283 0.0 5.0 0.00 0.00 0.00 36 1010.4
20260503224541 56 208 1.0 5.0 0.00 0.00 0.00 35 1010.3
20260503223039 57 296 3.0 6.0 0.00 0.00 0.00 34 1010.5
20260503221537 57 296 2.0 10.0 0.00 0.00 0.00 35 1010.2
20260503220040 57 274 2.0 10.0 0.00 0.00 0.00 35 1010.4
20260503214536 57 292 3.0 6.0 0.00 0.00 0.00 35 1010.4
20260503213036 58 271 3.0 6.0 0.00 0.00 0.00 37 1010.3
20260503211539 59 290 3.0 7.0 0.00 0.00 0.00 36 1010.3
20260503210034 58 257 3.0 15.0 0.00 0.00 0.00 35 1010.2
20260503204533 58 279 5.0 9.0 0.00 0.00 0.00 39 1010.3
20260503203031 57 304 3.0 8.0 0.00 0.00 0.00 38 1010.1
20260503201529 57 297 1.0 6.0 0.00 0.00 0.00 41 1010.2
20260503200027 56 38 4.0 9.0 0.00 0.00 0.00 41 1010.3
20260503194525 56 299 3.0 7.0 0.00 0.00 0.00 40 1010.4
20260503193035 56 279 3.0 9.0 0.00 0.00 0.00 41 1010.6
20260503191524 54 31 2.0 6.0 0.00 0.00 0.00 44 1010.8
20260503190031 56 260 4.0 9.0 0.00 0.00 0.00 41 1010.8
20260503184523 55 291 4.0 8.0 0.00 0.00 0.00 41 1010.8
20260503183023 56 281 4.0 12.0 0.00 0.00 0.00 40 1010.8
20260503181525 55 276 2.0 7.0 0.00 0.00 0.00 41 1010.6
20260503180021 56 276 3.0 8.0 0.00 0.00 0.00 40 1010.5
20260503174524 56 296 3.0 12.0 0.00 0.00 0.00 39 1010.4
20260503173021 56 269 4.0 9.0 0.00 0.00 0.00 40 1010.5
20260503171518 55 285 4.0 9.0 0.00 0.00 0.00 40 1010.7